UFO 11 (USA 174)

Last updated on Sun Dec 14 2025 00:02:48 GMT+0000 (Coordinated Universal Time)

1 28117U 03057A 25346.86051639 -.00000098 00000+0 00000+0 0 9998 2 28117 8.7447 34.7068 0004863 224.7574 207.7380 1.00271231 80586
UTC large
Height (km)
Speed (km/s)
/
Latitude / Longitude
Inclination (degrees)
Orbital Period (minutes)
Azimuth
Elevation
Range (km)
Doppler Factor

Next 0 passes for location: London (51.5072 / 0.1276)

Sorry there are no passes over London.